"Time","Temp","Dewpoint","Humidity","Pressure","Direction","Speed","Gust","Precip","PrecipRate"
"00:04:57","32.4","18.2","55.6","29.92","327","7.2","12","0.00","0.00"
"00:09:59","32.1","18.2","56","29.92","311","7.3","12","0.00","0.00"
"00:14:56","32","18.1","56","29.92","310","6.6","13","0.00","0.00"
"00:19:57","31.9","18","56","29.92","316","6","12","0.00","0.00"
"00:24:57","31.8","18","56.1","29.92","296","4.9","10","0.00","0.00"
"00:29:57","31.8","18","56.3","29.93","315","6.4","11.5","0.00","0.00"
"00:34:58","31.8","18","56.2","29.93","324","5.8","12","0.00","0.00"
"00:39:57","31.7","17.9","56.4","29.93","324","6.8","13","0.00","0.00"
"00:44:57","31.7","17.8","56","29.93","329","4.9","12","0.00","0.00"
"00:49:57","31.5","17.9","56.7","29.93","333","4.2","10","0.00","0.00"
"00:54:58","31.4","17.7","56.7","29.93","331","4.2","13","0.00","0.00"
"00:59:59","31.4","17.5","56.2","29.93","324","5.5","13","0.00","0.00"
"01:04:59","31.3","17.4","56.2","29.93","326","4.2","10","0.00","0.00"
"01:09:57","31.3","17.4","56","29.93","333","4.5","10.4","0.00","0.00"
"01:14:58","31.2","17.3","56","29.94","338","3.5","10","0.00","0.00"
"01:19:58","31.1","17.2","56","29.94","333","3.6","10.4","0.00","0.00"
"01:24:59","31.1","17.2","56","29.94","327","3.6","8.1","0.00","0.00"
"01:29:59","31","17","55.8","29.94","312","3","6","0.00","0.00"
"01:34:59","31.1","16.8","55.1","29.94","319","3.9","10.4","0.00","0.00"
"01:39:58","31.1","16.8","54.8","29.94","326","2.7","7","0.00","0.00"
"01:44:57","31.1","16.8","54.8","29.95","342","1.9","7","0.00","0.00"
"01:49:59","31","16.7","55","29.95","333","1.9","5","0.00","0.00"
"01:54:57","30.7","16.4","55","29.95","341","2.2","5","0.00","0.00"
"01:59:56","30.7","16.3","54.8","29.95","317","3","7","0.00","0.00"
"02:04:57","30.6","16.3","55","29.95","318","2.5","9.2","0.00","0.00"
"02:09:57","30.6","16.2","54.7","29.95","311","4.1","9.2","0.00","0.00"
"02:14:58","30.7","16.2","54.6","29.95","319","5.1","15","0.00","0.00"
"02:19:56","30.8","16.1","54","29.95","345","5.4","12","0.00","0.00"
"02:24:56","30.9","16.2","54","29.95","316","3.8","8.1","0.00","0.00"
"02:29:56","30.8","16","53.7","29.96","326","5.6","17.3","0.00","0.00"
"02:34:58","31","15.9","53.2","29.96","359","5.9","13","0.00","0.00"
"02:39:57","31.1","15.7","52.5","29.96","327","7.8","17.3","0.00","0.00"
"02:44:57","31.1","15.7","52.5","29.96","340","7.4","16","0.00","0.00"
"02:49:57","31.1","15.7","52.6","29.95","327","7.7","16.1","0.00","0.00"
"02:54:57","30.9","15.7","52.9","29.95","326","6.9","13","0.00","0.00"
"02:59:55","30.8","15.8","53.1","29.95","323","5.5","12","0.00","0.00"
"03:04:59","30.6","15.5","53","29.95","326","6.3","14","0.00","0.00"
"03:09:57","30.6","15.5","53.2","29.95","320","5.7","14","0.00","0.00"
"03:14:57","30.4","15.5","53.3","29.96","306","6.2","12","0.00","0.00"
"03:19:57","30.4","15.3","53","29.96","319","6.2","14","0.00","0.00"
"03:24:57","30.3","15.3","53.2","29.96","321","6","13","0.00","0.00"
"03:29:56","30.3","15.2","53","29.97","333","6.2","13","0.00","0.00"
"03:34:57","30.3","15.1","52.8","29.97","319","5.4","12","0.00","0.00"
"03:39:59","30.3","15.1","52.8","29.97","314","5.5","14","0.00","0.00"
"03:44:56","30.3","15.1","52.8","29.97","333","5.7","14","0.00","0.00"
"03:49:56","30.2","15.1","53","29.97","326","5.2","12","0.00","0.00"
"03:54:59","30.2","14.8","52.2","29.97","338","5.2","10.4","0.00","0.00"
"03:59:58","30.2","15","52.9","29.97","322","4","10.4","0.00","0.00"
"04:04:59","30","15","53.1","29.97","306","3.1","10.4","0.00","0.00"
"04:09:56","29.8","15.1","54","29.97","306","1.9","5","0.00","0.00"
"04:14:57","29.6","14.5","53","29.98","321","3.6","9","0.00","0.00"
"04:19:59","29.8","14.5","52.4","29.98","327","5.1","11","0.00","0.00"
"04:24:56","30","14.4","51.8","29.98","321","6.1","12","0.00","0.00"
"04:29:58","30","14.4","51.9","29.98","320","4.9","10.4","0.00","0.00"
"04:34:56","29.9","14.4","52","29.98","321","6.2","12","0.00","0.00"
"04:39:59","29.8","14.4","52.2","29.98","318","4.6","12","0.00","0.00"
"04:44:56","29.7","14.4","52.4","29.98","305","6","17.3","0.00","0.00"
"04:49:56","29.7","14.2","52","29.98","310","5.5","10.4","0.00","0.00"
"04:54:56","29.6","14.4","52.6","29.98","307","5.6","10.4","0.00","0.00"
"04:59:59","29.5","14.3","52.7","29.99","312","5.3","10","0.00","0.00"
"05:04:59","29.6","14.4","52.7","29.99","317","5.1","10.4","0.00","0.00"
"05:09:56","29.4","14.4","53","29.99","311","4.9","13","0.00","0.00"
"05:14:57","29.3","14.3","53","29.99","310","6.1","13","0.00","0.00"
"05:19:59","29.3","14.5","53.6","29.99","315","5.4","12","0.00","0.00"
"05:24:56","29.1","14.2","53.3","29.99","317","4.5","13","0.00","0.00"
"05:29:59","29.1","14.3","53.5","29.99","308","4.6","13","0.00","0.00"
"05:34:56","29","14.3","53.7","29.99","310","4","11","0.00","0.00"
"05:39:56","29","14.2","53.5","29.99","312","4.3","12","0.00","0.00"
"05:44:57","29","14.2","53.4","29.99","323","4.4","10.4","0.00","0.00"
"05:49:57","29.1","14","53","29.99","314","3.4","9.2","0.00","0.00"
"05:54:59","29","14.1","53.2","29.99","316","4","9","0.00","0.00"
"05:59:59","29","14.1","53.2","30.00","329","4.4","12","0.00","0.00"
"06:04:56","28.9","14.2","53.8","30.00","309","4.3","7","0.00","0.00"
"06:09:58","28.8","14.2","54","30.00","284","4.3","6","0.00","0.00"
"06:14:59","28.8","14.2","54","30.01","329","4.6","9.2","0.00","0.00"
"06:19:56","28.9","14.2","53.8","30.01","315","4.1","9.2","0.00","0.00"
"06:24:57","28.8","14.2","53.9","30.01","317","3.7","9.2","0.00","0.00"
"06:29:57","28.8","13.8","53","30.02","322","4.1","9.2","0.00","0.00"
"06:34:58","28.9","14","53.2","30.02","330","2.5","7","0.00","0.00"
"06:39:58","28.9","13.9","52.8","30.02","332","3.4","8","0.00","0.00"
"06:44:59","29","13.7","52.3","30.02","336","4.2","12","0.00","0.00"
"06:49:57","29.2","13.8","52.3","30.02","328","2.1","7","0.00","0.00"
"06:54:59","29.1","13.6","52","30.02","337","1.8","5","0.00","0.00"
"06:59:57","29","13.6","52","30.02","3","1.3","5","0.00","0.00"
"07:04:57","28.8","13.6","52.4","30.02","328","2.8","9.2","0.00","0.00"
"07:09:58","28.8","13.6","52.6","30.02","323","3.7","10.4","0.00","0.00"
"07:14:56","28.8","13.6","52.4","30.03","350","2.7","10","0.00","0.00"
"07:19:58","28.8","13.6","52.5","30.03","334","3.3","12","0.00","0.00"
"07:24:59","29","13.5","51.8","30.03","315","3.8","11.5","0.00","0.00"
"07:29:56","29.1","13.5","51.6","30.03","338","4.3","12","0.00","0.00"
"07:34:58","29.3","13.4","51","30.03","326","3.7","9.2","0.00","0.00"
"07:39:58","29.4","13.5","51","30.03","309","2.7","6","0.00","0.00"
"07:44:57","29.3","13.4","51","30.05","344","2.5","6","0.00","0.00"
"07:49:58","29.3","13.2","50.7","30.05","336","3.6","10","0.00","0.00"
"07:54:59","29.4","13.2","50.4","30.05","334","3.5","7","0.00","0.00"
"07:59:56","29.7","13.3","50","30.05","320","5.2","12","0.00","0.00"
"08:04:56","30","13.2","49.3","30.05","319","5.9","12","0.00","0.00"
"08:09:57","30.4","13.3","48.6","30.05","319","7.3","12","0.00","0.00"
"08:14:57","30.7","13.4","48.2","30.05","309","5.3","12","0.00","0.00"
"08:19:58","31.1","13.2","47","30.05","313","6.8","13","0.00","0.00"
"08:24:59","31.5","13.5","46.7","30.04","317","5.7","13","0.00","0.00"
"08:29:58","31.8","13.6","46.6","30.04","318","5.1","12","0.00","0.00"
"08:34:58","32.2","13.2","45","30.04","319","4.7","12","0.00","0.00"
"08:39:59","32.6","13.6","44.9","30.04","324","4.2","11","0.00","0.00"
"08:44:59","33.1","13.6","44.3","30.05","343","3.8","12","0.00","0.00"
"08:49:56","33.4","13.3","43","30.05","293","3.9","12","0.00","0.00"
"08:54:56","33.7","13.2","42.4","30.05","321","3.3","11.5","0.00","0.00"
"08:59:59","34.1","13.3","41.9","30.06","318","2.4","10","0.00","0.00"
"09:04:56","34.7","13.7","41.8","30.06","337","1.9","7","0.00","0.00"
"09:09:57","35.2","13.8","41","30.06","270","1.8","12","0.00","0.00"
"09:14:59","35.5","14.1","41.1","30.06","339","3.7","12","0.00","0.00"
"09:19:59","35.5","13.4","39.8","30.06","328","4.5","10","0.00","0.00"
"09:24:56","35.6","13.9","40.6","30.06","344","3.2","10","0.00","0.00"
"09:29:59","36","13.8","39.6","30.06","308","2","7","0.00","0.00"
"09:34:56","36.4","13.9","39.2","30.06","330","3.1","7","0.00","0.00"
"09:39:56","36.7","14","38.9","30.06","331","2.7","7","0.00","0.00"
"09:44:56","37","14","38.4","30.07","306","2.6","6","0.00","0.00"
"09:49:56","37.3","14.8","39.2","30.07","320","3","7","0.00","0.00"
"09:54:57","37.5","13.3","36.6","30.07","330","5.4","10.4","0.00","0.00"
"09:59:57","37.7","14","37.5","30.07","319","4.2","9.2","0.00","0.00"
"10:04:58","37.9","14.4","37.8","30.07","326","3.7","7","0.00","0.00"
"10:09:59","37.9","13.4","36.2","30.07","325","4.3","10.4","0.00","0.00"
"10:14:57","38.1","13.7","36.4","30.07","330","3.1","10","0.00","0.00"
"10:19:59","38.6","14.3","36.6","30.07","349","3.3","10.4","0.00","0.00"
"10:24:56","39.2","13.9","35.2","30.07","318","3.3","6","0.00","0.00"
"10:29:58","39.4","14","35.1","30.07","324","4.1","9.2","0.00","0.00"
"10:34:56","39.6","13.6","34.2","30.07","332","4.6","10.4","0.00","0.00"
"10:39:58","39.7","13.3","33.6","30.07","330","6.1","12","0.00","0.00"
"10:44:56","39.7","13.5","33.9","30.08","335","4.2","10.4","0.00","0.00"
"10:49:57","40","13.8","33.9","30.08","328","4.8","13","0.00","0.00"
"10:54:58","40.3","13.7","33.4","30.08","322","4.8","9.2","0.00","0.00"
"10:59:58","40.6","13.3","32.4","30.08","313","4.2","12","0.00","0.00"
"11:04:59","40.8","13.7","32.6","30.07","345","4.4","10","0.00","0.00"
"11:09:56","41","13.4","32.1","30.07","335","4.2","10.4","0.00","0.00"
"11:14:57","41.4","14.2","32.8","30.07","341","3","10","0.00","0.00"
"11:19:56","41.9","14.7","32.9","30.06","348","3.6","12","0.00","0.00"
"11:24:57","42.3","14.2","31.6","30.06","322","4.2","9","0.00","0.00"
"11:29:57","42.3","14.4","31.9","30.06","333","4.7","13","0.00","0.00"
"11:34:59","42.2","13.5","30.8","30.06","328","5.7","14","0.00","0.00"
"11:39:56","42","13.1","30.4","30.05","350","7.2","14","0.00","0.00"
"11:44:57","42.1","13.8","31.2","30.05","327","5.3","12","0.00","0.00"
"11:49:58","42.2","13.5","30.7","30.05","312","5.8","12","0.00","0.00"
"11:54:59","42.2","15.3","33.4","30.05","319","5.3","14","0.00","0.00"
"11:59:59","42.1","14","31.6","30.05","316","5.5","14","0.00","0.00"
"12:04:56","42.2","13.8","31.2","30.04","333","4.1","10","0.00","0.00"
"12:09:57","42.4","13.4","30.4","30.04","318","4.1","10","0.00","0.00"
"12:14:59","42.6","14","30.9","30.04","316","3.5","9.2","0.00","0.00"
"12:19:56","42.9","13.6","30.1","30.03","305","3.7","7","0.00","0.00"
"12:24:57","43.1","14.3","30.9","30.02","325","3.2","6","0.00","0.00"
"12:29:57","43.6","16.5","33.3","30.02","315","2.2","6","0.00","0.00"
"12:34:57","44.2","14.9","30.3","30.02","324","3","6","0.00","0.00"
"12:39:58","44.6","15.6","30.8","30.01","326","3.2","7","0.00","0.00"
"12:44:59","44.8","15.2","30.1","30.01","278","2.2","5","0.00","0.00"
"12:49:57","45.1","16.8","31.8","30.01","282","2.1","4","0.00","0.00"
"12:54:58","45.2","15.8","30.3","30.01","313","2.3","5","0.00","0.00"
"12:59:58","45.4","16","30.4","30.01","284","2.5","5","0.00","0.00"
"13:04:58","45.9","15.9","29.6","30.01","333","2.5","7","0.00","0.00"
"13:09:59","46.1","15.9","29.5","30.01","310","2.2","7","0.00","0.00"
"13:14:57","46.2","14.5","27.6","30.01","319","3.2","6","0.00","0.00"
"13:19:59","46.3","16","29.4","30.00","314","1.6","5","0.00","0.00"
"13:24:57","46.5","17.1","30.6","30.00","203","1.8","3.5","0.00","0.00"
"13:29:57","46.6","16.1","29.2","30.00","294","2.4","6","0.00","0.00"
"13:34:59","46.8","17.1","30.2","30.00","248","2.8","5","0.00","0.00"
"13:39:56","46.7","18","31.5","30.00","242","3.3","5","0.00","0.00"
"13:44:57","46.7","17.6","31","30.00","226","2.8","4","0.00","0.00"
"13:49:58","46.7","17.1","30.4","30.00","231","2.5","4","0.00","0.00"
"13:54:56","46.9","16.6","29.5","29.99","224","2.2","4","0.00","0.00"
"13:59:56","47.1","17.4","30.3","29.99","229","2.4","5","0.00","0.00"
"14:04:56","47.5","18.9","31.8","29.99","253","2.1","4","0.00","0.00"
"14:09:57","47.7","16.3","28.2","29.99","290","2.9","6","0.00","0.00"
"14:14:59","47.6","15.5","27.5","30.00","266","3.1","7","0.00","0.00"
"14:19:56","47.6","15.8","27.8","30.00","268","3","9","0.00","0.00"
"14:24:56","47.6","14.9","26.7","30.00","255","3.4","9.2","0.00","0.00"
"14:29:56","47.8","14.9","26.5","30.00","293","2.9","6","0.00","0.00"
"14:34:56","47.9","16.5","28.3","30.00","257","3.8","9.2","0.00","0.00"
"14:39:57","47.6","14","25.6","30.00","270","3","9.2","0.00","0.00"
"14:44:58","47.9","13.8","25.2","30.00","277","2.5","10","0.00","0.00"
"14:49:59","48.1","12.4","23.5","30.00","289","2.5","6","0.00","0.00"
"14:54:56","48.4","12","22.9","30.00","306","2.6","5","0.00","0.00"
"14:59:56","48.7","11.3","21.9","30.00","304","3.2","7","0.00","0.00"
"15:04:57","48.7","11.3","21.8","29.99","304","2.5","6","0.00","0.00"
"15:09:58","48.7","10.4","21","29.99","320","2.5","6","0.00","0.00"
"15:14:59","48.7","12.9","23.4","29.99","328","1.9","5","0.00","0.00"
"15:19:57","49","11.4","21.7","29.98","329","1.8","5","0.00","0.00"
"15:24:59","49.2","13.3","23.4","29.98","314","2.4","5","0.00","0.00"
"15:29:59","49.5","11.4","21.3","29.98","327","2.4","5","0.00","0.00"
"15:34:57","49.7","12.3","22","29.97","324","1.5","3.5","0.00","0.00"
"15:39:57","49.9","11.9","21.5","29.97","324","1.2","4","0.00","0.00"
"15:44:58","49.6","11.7","21.4","29.97","324","0.6","2.3","0.00","0.00"
"15:49:56","49.2","12.4","22.5","29.97","325","0.2","1.2","0.00","0.00"
"15:54:57","49","12.6","22.9","29.96","325","0.3","1.2","0.00","0.00"
"15:59:57","48.9","10.4","20.9","29.96","325","0.3","2.3","0.00","0.00"
"16:04:59","48.7","12.5","23","29.96","325","0.7","3.5","0.00","0.00"
"16:09:57","48.3","8.9","19.9","29.96","325","0.8","3.5","0.00","0.00"
"16:14:58","47.8","11.6","22.9","29.96","344","1.2","3.5","0.00","0.00"
"16:19:57","47.3","11.5","23.2","29.96","358","0.4","3.5","0.00","0.00"
"16:24:59","47","10.5","22.4","29.96","359","0.4","2.3","0.00","0.00"
"16:29:58","46.8","11.7","23.9","29.96","360","0.1","1.2","0.00","0.00"
"16:34:56","46.6","15.8","28.9","29.96","360","0.5","3.5","0.00","0.00"
"16:39:57","46.1","13.4","26.3","29.96","360","1.7","3.5","0.00","0.00"
"16:44:58","45.7","13.2","26.6","29.96","22","1.8","3.5","0.00","0.00"
"16:49:55","45.4","12.9","26.5","29.95","31","1","3.5","0.00","0.00"
"16:54:57","45.2","13.9","27.9","29.95","31","0.4","1.2","0.00","0.00"
"16:59:57","45","16","30.8","29.95","32","0.1","1.2","0.00","0.00"
"17:04:59","44.7","15","29.9","29.95","32","0.5","3","0.00","0.00"
"17:09:56","44.5","13.2","27.9","29.95","34","0.9","3.5","0.00","0.00"
"17:14:58","44.3","18.2","34.8","29.96","35","0.1","3","0.00","0.00"
"17:19:56","44","17.7","34.6","29.96","35","0.1","1.2","0.00","0.00"
"17:24:59","43.6","16.8","33.9","29.96","35","0.5","2.3","0.00","0.00"
"17:29:56","43.1","22.4","43.5","29.97","35","0","0","0.00","0.00"
"17:34:59","42.5","21.4","42.8","29.97","35","0.1","1.2","0.00","0.00"
"17:39:56","42","14.9","33","29.97","35","0.2","2.3","0.00","0.00"
"17:44:59","42","13.5","31","29.97","35","0","0","0.00","0.00"
"17:49:57","42.1","13.7","31.2","29.97","35","0","0","0.00","0.00"
"17:54:58","42","15.3","33.5","29.97","35","0","0","0.00","0.00"
"17:59:58","41.7","15.5","34.1","29.97","35","0","0","0.00","0.00"
"18:04:56","41.4","15.7","34.9","29.96","35","0","0","0.00","0.00"
"18:09:57","41.1","17.9","39","29.95","35","0","0","0.00","0.00"
"18:14:58","40.7","20.3","43.8","29.96","35","0","0","0.00","0.00"
"18:19:59","40","22.8","50","29.96","35","0","0","0.00","0.00"
"18:24:57","39.4","20.1","45.8","29.96","35","0","0","0.00","0.00"
"18:29:57","39.1","23.5","53.4","29.96","35","0","0","0.00","0.00"
"18:34:58","38.5","23.4","54.5","29.95","35","0","0","0.00","0.00"
"18:39:58","38","22.5","53.2","29.95","35","0","0","0.00","0.00"
"18:44:59","37.7","24.3","58.2","29.95","35","0","0","0.00","0.00"
"18:49:56","37.3","25.4","61.9","29.95","35","0","0","0.00","0.00"
"18:54:59","36.9","25.3","62.5","29.95","35","0","0","0.00","0.00"
"18:59:59","36.7","25","62.3","29.95","35","0","0","0.00","0.00"
"19:04:57","36.5","24.9","62.6","29.95","35","0","0","0.00","0.00"
"19:09:59","36.3","25","63.3","29.94","35","0","0","0.00","0.00"
"19:14:57","36.2","24.6","62.5","29.94","35","0","0","0.00","0.00"
"19:19:58","36.2","25.5","64.9","29.94","35","0","0","0.00","0.00"
"19:24:59","36","25.6","65.6","29.94","35","0","0","0.00","0.00"
"19:29:58","35.9","25.5","65.7","29.94","35","0","0","0.00","0.00"
"19:34:56","35.6","25","65","29.94","35","0","0","0.00","0.00"
"19:39:57","35.4","23.5","61.6","29.94","35","0","0","0.00","0.00"
"19:44:58","35.3","22.7","59.8","29.94","35","0","0","0.00","0.00"
"19:49:59","35.2","22.8","60.3","29.93","35","0","0","0.00","0.00"
"19:54:56","35","22.3","59.4","29.93","35","0","0","0.00","0.00"
"19:59:57","35","22.9","61.1","29.93","35","0","0","0.00","0.00"
"20:04:57","34.9","22.9","61.3","29.93","35","0","0","0.00","0.00"
"20:09:59","34.9","23.4","62.4","29.93","35","0","0","0.00","0.00"
"20:14:55","34.9","23.6","63","29.93","35","0","0","0.00","0.00"
"20:19:56","34.9","23.2","62.2","29.92","35","0","0","0.00","0.00"
"20:24:57","34.9","23","61.3","29.92","35","0","0","0.00","0.00"
"20:29:57","35.1","22.1","58.9","29.92","35","0","0","0.00","0.00"
"20:34:59","35.3","21.9","57.8","29.92","35","0","0","0.00","0.00"
"20:39:56","35.3","21.4","56.5","29.92","35","0","0","0.00","0.00"
"20:44:56","35.4","21.2","55.8","29.92","35","0","0","0.00","0.00"
"20:49:57","35.5","22.2","58.2","29.92","35","0","0","0.00","0.00"
"20:54:56","35.5","21.7","56.7","29.92","35","0","0","0.00","0.00"
"20:59:58","35.5","21.8","56.9","29.92","35","0","0","0.00","0.00"
"21:04:58","35.6","23","59.7","29.91","35","0","0","0.00","0.00"
"21:09:59","35.7","23.2","60","29.91","35","0","0","0.00","0.00"
"21:14:56","35.9","23.6","60.6","29.91","35","0","0","0.00","0.00"
"21:19:56","36.1","22.3","57.1","29.90","18","0.6","3.5","0.00","0.00"
"21:24:59","36.6","24.1","60.5","29.89","307","1.6","3.5","0.00","0.00"
"21:29:58","36.4","26","65.7","29.90","264","0.3","2.3","0.00","0.00"
"21:34:59","36.1","26.5","67.6","29.90","261","0.2","2","0.00","0.00"
"21:39:58","35.9","24.5","63","29.90","261","1.7","3.5","0.00","0.00"
"21:44:57","35.9","24.7","63.3","29.90","261","1.1","3.5","0.00","0.00"
"21:49:57","35.9","22.7","58.4","29.90","261","0.2","2.3","0.00","0.00"
"21:54:56","36.1","21.7","55.6","29.90","261","0.2","1.2","0.00","0.00"
"21:59:58","36.3","21","53.5","29.90","261","0","0","0.00","0.00"
"22:04:59","36.6","20.1","50.8","29.90","261","0","1.2","0.00","0.00"
"22:09:57","37","20.6","51.3","29.90","261","0","1.2","0.00","0.00"
"22:14:56","37.2","21.9","53.5","29.90","261","0","1.2","0.00","0.00"
"22:19:56","37.3","22.1","54","29.89","261","0","1","0.00","0.00"
"22:24:56","37.3","20.9","51.2","29.89","261","0.2","1.2","0.00","0.00"
"22:29:58","37.5","20.2","49.4","29.89","212","0.7","3","0.00","0.00"
"22:34:58","37.9","19.3","46.8","29.88","193","1","5","0.00","0.00"
"22:39:57","38.4","19.6","46.5","29.87","168","2.2","5","0.00","0.00"
"22:44:56","39","19.7","45.6","29.87","146","1.8","5","0.00","0.00"
"22:49:59","39.6","19.4","43.9","29.87","175","2.4","5","0.00","0.00"
"22:54:59","40.1","19.9","44.1","29.87","184","1.8","4","0.00","0.00"
"22:59:58","40.3","19.6","43.3","29.87","184","1.4","4","0.00","0.00"
"23:04:58","40.5","20","43.6","29.86","184","0.6","3.5","0.00","0.00"
"23:09:56","40.5","21.1","45.6","29.86","184","1.1","2.3","0.00","0.00"
"23:14:59","40.4","21.5","46.6","29.86","184","0.4","2.3","0.00","0.00"
"23:19:58","40.3","20.9","45.5","29.85","184","0.5","2.3","0.00","0.00"
"23:24:57","40.2","20.5","45","29.85","184","0.5","2.3","0.00","0.00"
"23:29:59","40.2","21.7","47.3","29.85","184","0","1.2","0.00","0.00"
"23:34:59","40","22.4","49.1","29.84","184","0","1.2","0.00","0.00"
"23:39:58","39.8","21.1","46.7","29.84","184","0.6","3","0.00","0.00"
"23:44:57","39.7","21.5","47.7","29.84","185","0.6","3.5","0.00","0.00"
"23:49:57","39.6","22.4","50","29.84","186","0.1","1.2","0.00","0.00"
"23:54:56","39.4","23.6","52.9","29.83","186","0.1","2","0.00","0.00"
"23:59:58","39.2","23.1","52.3","29.83","186","0.5","2.3","0.00","0.00"
